UPDATE Mit 1. Juli wird auf eine neue Wetterseite umgestellt
Wer schon probieren möchte kann unter https://wetter.hildner.at gerne testen
Die Seite befindet sich noch im Aufbau

Es liegt ein Kommunikationsproblem . Gehen Sie direkt zur Website Meteoalarm : www.meteoalarm.eu und überprüfen Sie die Wetterwarnungen..


Rindlberg West Mehr Informationen Rindlberg West


Stuetzi - Rindlberg Ost Mehr Informationen Stuetzi - Rindlberg Ost


Regenradar Mehr Informationen rain snow radar


Sie finden meine Wetter-Infos auch auf:

Weather Underground

AWEKAS



IOBERSTE7 History tables / reports. Script startWUhistory.php

Wählen sie eine andere Periode ( ausblenden )

Einheiten Zeitraum Benutzerdef. Zeitraum Direkt zu
metrisch Englisch Beide
Täglich Wöchentlich Monatlich Jährlich
Beide Datumseingaben nutzen um einen Bereich festzulegen
vorheriger Tag
Mit diesem Datum

WU Grafiken für diese Periode ( klicken ) Loading the graph can take up to a minute!


Täglich Zusammenfassung für Montag Jun 27 2022
Zeit Temp. ( °C ) Taupt. ( °C ) Wind ( km/h ) von Windböen ( km/h ) Luftdruck ( hPa ) Luftf.( % ) Regenrate ( cm )
Hoch30,3 18,0 14,0 OSO ( 217/641 ) 17,0 1017,7 90 -
Durchchnittswerte20,5 14,3 3,6 Windstille #103/178 5,2 1009,0 71 -
Tief13,7 10,9 -   0,0 0,0 42 -
Täglich tabellarische Details für Montag Jun 27 2022
Zeit Temp. ( °C ) Taupt. ( °C ) Wind ( km/h ) von Windböen ( km/h ) Luftdruck ( hPa ) Luftf.( % ) Regenrate ( cm )
00:04 15,8 11,9   Windstille   1017,6 78 -
00:09 15,7 11,9   Windstille   1017,6 78 -
00:14 15,6 11,8   Windstille   1017,7 78 -
00:19 15,5 11,7   Windstille   1017,7 78 -
00:24 15,4 11,6   Windstille   1017,7 78 -
00:29 15,4 11,6   Windstille   1017,7 78 -
00:34 15,4 11,8   Windstille   1017,7 79 -
00:39 15,4 11,8   Windstille   1017,7 79 -
00:44 15,4 11,8   Windstille   1016,6 79 -
00:49 15,4 11,8   Windstille   1016,7 79 -
00:54 15,3 11,7   Windstille   1016,7 79 -
00:59 15,2 11,6   Windstille   1016,7 79 -
01:04 15,2 11,6   Windstille   1016,7 79 -
01:09 15,1 11,3   Windstille   1016,8 78 -
01:14 15,0 11,2   Windstille   1016,8 78 -
01:19 15,0 11,5   Windstille   1016,8 80 -
01:24 14,9 11,5   Windstille   1016,8 80 -
01:29 14,8 11,4   Windstille   1016,8 80 -
01:34 14,8 11,4   Windstille   1016,9 80 -
01:39 14,7 11,3   Windstille   1016,9 80 -
01:44 14,6 11,2   Windstille   1016,9 80 -
01:49 14,6 11,2   Windstille   1016,9 80 -
01:54 14,6 11,4   Windstille   1016,9 81 -
01:59 14,6 11,4   Windstille   1016,9 81 -
02:04 14,5 11,3   Windstille   1016,9 81 -
02:09 14,5 11,4   Windstille   1016,9 82 -
02:14 14,5 11,3   Windstille   1016,9 81 -
02:19 14,5 11,3   Windstille   1017,0 81 -
02:24 14,4 11,2   Windstille   1017,0 81 -
02:29 14,4 11,2   Windstille   1017,0 81 -
02:34 14,3 11,1   Windstille   1017,0 81 -
02:39 14,3 11,1   Windstille   1017,1 81 -
02:44 14,2 11,0   Windstille   1017,1 81 -
02:49 14,2 11,0   Windstille   1017,1 81 -
02:54 14,1 10,9   Windstille   1017,1 81 -
02:59 14,1 11,1   Windstille   1017,1 82 -
03:04 14,1 11,1   Windstille   1017,1 82 -
03:09 14,0 11,0   Windstille   1017,1 82 -
03:14 14,0 11,0   Windstille   1017,1 82 -
03:19 14,0 11,2   Windstille   1017,1 83 -
03:24 14,0 11,0   Windstille   1017,1 82 -
03:29 13,9 10,9   Windstille   1016,1 82 -
03:34 13,9 10,9   Windstille   1016,1 82 -
03:39 13,9 11,1   Windstille   1016,1 83 -
03:44 13,9 11,1   Windstille   1016,1 83 -
03:49 13,9 11,1   Windstille   1016,1 83 -
03:54 13,9 11,1   Windstille   1016,1 83 -
03:59 13,9 11,1   Windstille   1016,1 83 -
04:04 13,8 10,9   Windstille   1016,1 83 -
04:09 13,8 10,9   Windstille   1016,1 83 -
04:14 13,8 10,9   Windstille   1016,1 83 -
04:19 13,8 11,2   Windstille   1016,1 84 -
04:24 13,8 11,2   Windstille   1016,1 84 -
04:29 13,8 11,2   Windstille   1016,1 84 -
04:34 13,8 11,2   Windstille   1016,1 84 -
04:39 13,8 11,2   Windstille   1016,1 84 -
04:44 13,8 11,2   Windstille   1016,1 84 -
04:49 13,8 11,5   Windstille   1016,1 86 -
04:54 13,8 11,5   Windstille   1016,1 86 -
04:59 13,8 11,5   Windstille   1016,1 86 -
05:04 13,7 11,4   Windstille   1016,1 86 -
05:09 13,8 11,5   Windstille   1016,1 86 -
05:14 13,8 11,5   Windstille   1016,1 86 -
05:19 13,8 11,5   Windstille   1016,1 86 -
05:24 13,8 11,5   Windstille   1016,1 86 -
05:29 13,8 11,5   Windstille   1016,1 86 -
05:34 13,8 11,5   Windstille   1016,1 86 -
05:39 13,8 11,5   Windstille   1016,1 86 -
05:44 13,8 11,5   Windstille   1016,1 86 -
05:49 13,8 11,5   Windstille   1016,1 86 -
05:54 13,8 11,2   Windstille   1016,1 84 -
05:59 13,9 11,6   Windstille   1016,1 86 -
06:04 14,0 11,9   Windstille   1016,1 87 -
06:09 14,1 11,9   Windstille   1016,0 87 -
06:14 14,3 12,1   Windstille   1016,0 87 -
06:19 14,5 12,6   Windstille   1015,9 88 -
06:24 14,6 12,6   Windstille   1015,9 88 -
06:29 14,9 13,1   Windstille   1015,8 89 -
06:34 15,2 13,2   Windstille   1015,7 88 -
06:39 15,4 13,6   Windstille   1015,6 89 -
06:44 15,7 13,9   Windstille   1015,5 89 -
06:49 16,0 14,3   Windstille   1015,4 90 -
06:54 16,3 14,7   Windstille   1015,2 90 -
06:59 16,6 14,9   Windstille   1015,2 90 -
07:04 16,8 15,2   Windstille   1015,0 90 -
07:09 17,1 15,3   Windstille   1015,0 90 -
07:14 17,5 15,7   Windstille   1014,8 89 -
07:19 17,7 15,9   Windstille   1014,7 89 -
07:24 18,0 16,2   Windstille   1014,6 89 -
07:29 18,3 16,3   Windstille   1014,5 89 -
07:34 18,5 16,4   Windstille   1014,5 88 -
07:39 18,8 16,6   Windstille   1014,8 88 -
07:44 19,0 16,8   Windstille   1015,4 87 -
07:49 19,2 16,8   Windstille   1015,3 87 -
07:54 19,4 17,0   Windstille   1015,2 86 -
07:59 19,7 17,3   Windstille   1015,1 86 -
08:04 20,0 17,5   Windstille   1015,0 86 -
08:09 20,3 17,4   Windstille   1014,9 84 -
08:14 20,6 17,4   Windstille   1014,8 83 -
08:19 21,1 17,4   Windstille   1014,7 81 -
08:24 21,5 17,5   Windstille   1014,5 79 -
08:29 21,8 17,4 1,0 OSO 12,0 1014,4 76 -
08:34 22,2 17,2 10,0 OSO 12,0 1014,3 74 -
08:39 22,5 17,1 11,0 OSO 14,0 1014,2 72 -
08:44 22,7 17,2 11,0 OSO 12,0 1014,1 71 -
08:49 22,9 17,3 10,0 OSO 12,0 1014,0 71 -
08:54 23,1 17,3 10,0 OSO 12,0 1013,9 70 -
08:59 23,3 17,3 11,0 OSO 16,0 1013,9 70 -
09:04 23,5 17,5 12,0 OSO 13,0 1013,8 69 -
09:09 23,8 17,6 11,0 SO 15,0 1013,7 68 -
09:14 24,0 17,6 12,0 OSO 15,0 1013,6 68 -
09:19 24,2 17,2 11,0 OSO 12,0 1013,5 66 -
09:24 24,4 17,6 10,0 OSO 12,0 1013,4 66 -
09:29 24,6 17,6 7,0 OSO 12,0 1013,4 65 -
09:34 24,8 17,8 6,0 SO 11,0 1013,3 65 -
09:39 25,1 17,8 11,0 OSO 12,0 1013,2 65 -
09:44 25,3 18,0 9,0 OSO 12,0 1013,2 64 -
09:49 25,7 17,8 9,0 OSO 12,0 1013,1 63 -
09:54 25,9 17,3 7,0 OSO 11,0 1013,0 59 -
09:59 26,2 17,3 7,0 SO 12,0 1012,9 58 -
10:04 26,4 17,4 11,0 SO 11,0 1012,8 58 -
10:09 26,5 17,3 4,0 SSO 8,0 1012,7 57 -
10:14 26,5 16,8 8,0 SSW 11,0 1012,7 56 -
10:19 26,6 16,8 9,0 SSW 12,0 1012,7 55 -
10:24 26,6 16,5 6,0 SSW 11,0 1012,7 54 -
10:29 26,6 16,4 9,0 SW 12,0 1012,7 54 -
10:34 26,4 16,1 10,0 SW 12,0 1012,7 53 -
10:39 26,5 16,1 8,0 Süden 11,0 1012,7 53 -
10:44 26,6 16,2 9,0 SW 12,0 1012,7 53 -
10:49 26,7 16,3 9,0 SW 12,0 1012,7 53 -
10:54 26,7 16,3 8,0 SW 12,0 1012,6 53 -
10:59 26,8 16,4 10,0 SSW 14,0 1012,6 53 -
11:04 26,8 15,8 9,0 Süden 12,0 1012,6 51 -
11:09 27,1 16,0 8,0 Süden 12,0 1012,6 51 -
11:14 27,1 15,6 8,0 SSW 12,0 1012,5 50 -
11:19 27,3 16,1 8,0 Süden 10,0 1012,5 50 -
11:24 27,4 16,2 7,0 SSW 12,0 1012,4 50 -
11:29 27,6 16,4 7,0 Süden 12,0 1012,4 51 -
11:34 27,7 16,3 8,0 SSW 12,0 1012,3 50 -
11:39 27,6 16,6 9,0 SW 12,0 1012,4 51 -
11:44 27,7 16,3 9,0 SSW 10,0 1012,3 50 -
11:49 27,8 16,4 9,0 Süden 12,0 1012,3 50 -
11:54 27,8 16,4 6,0 SSO 7,0 1012,3 50 -
11:59 28,1 16,6 6,0 SSW 12,0 1012,2 50 -
12:04 28,1 16,7 8,0 SW 11,0 1012,2 50 -
12:09 28,2 16,9 8,0 SSW 12,0 1012,2 50 -
12:14 28,2 16,8 9,0 SSW 12,0 1012,1 50 -
12:19 28,2 16,4 8,0 SW 11,0 1012,2 49 -
12:24 28,2 16,8 8,0 WSW 11,0 1012,2 50 -
12:29 28,4 16,8 8,0 SSO 11,0 1012,1 50 -
12:34 28,5 16,4 3,0 SO 6,0 1012,1 48 -
12:39 28,6 16,5   Windstille 7,0 1012,0 48 -
12:44 28,8 16,4   Windstille 5,0 1012,0 48 -
12:49 28,9 16,9 5,0 Süden 8,0 1012,0 48 -
12:54 29,0 16,9 8,0 Süden 12,0 1011,9 48 -
12:59 29,1 16,7 7,0 SSO 12,0 1011,9 48 -
13:04 29,3 17,3 10,0 OSO 14,0 1011,8 48 -
13:09 29,4 16,9 11,0 OSO 16,0 1011,8 47 -
13:14 29,5 17,0 7,0 SSO 11,0 1011,7 47 -
13:19 29,5 16,7 6,0 SSO 10,0 1011,7 46 -
13:24 29,8 17,4 12,0 SO 15,0 1011,6 48 -
13:29 29,9 17,2 7,0 Süden 11,0 1011,6 46 -
13:34 30,0 17,2 10,0 SSO 13,0 1011,6 46 -
13:39 30,0 17,4 6,0 SSW 8,0 1011,5 47 -
13:44 30,0 17,1 6,0 SSO 12,0 1011,5 46 -
13:49 30,0 16,8 7,0 SSO 12,0 1011,5 45 -
13:54 30,1 16,8 5,0 SSO 12,0 1011,5 45 -
13:59 30,1 16,5 9,0 SSW 12,0 1011,5 44 -
14:04 29,9 17,0 10,0 WSW 12,0 0,0 46 -
14:09 29,9 17,0 9,0 SSW 12,0 1011,6 46 -
14:14 29,9 16,7 8,0 SSW 12,0 1011,6 45 -
14:19 29,9 16,8 9,0 WSW 12,0 1011,6 46 -
14:24 30,0 16,8 8,0 SSW 12,0 1011,6 45 -
14:29 30,0 16,1 11,0 OSO 15,0 1012,7 43 -
14:34 30,0 16,1 9,0 OSO 16,0 1012,7 43 -
14:39 30,2 16,1 14,0 SO 17,0 1012,6 43 -
14:44 30,3 15,9 11,0 OSO 17,0 1012,6 42 -
14:49 30,3 15,7 13,0 OSO 16,0 1012,5 42 -
Täglich Zusammenfassung für Montag Jun 27 2022
Zeit Temp. ( °C ) Taupt. ( °C ) Wind ( km/h ) von Windböen ( km/h ) Luftdruck ( hPa ) Luftf.( % ) Regenrate ( cm )
Hoch30,3 18,0 14,0 OSO ( 217/641 ) 17,0 1017,7 90 -
Durchchnittswerte20,5 14,3 3,6 Windstille #103/178 5,2 1009,0 71 -
Tief13,7 10,9 -   0,0 0,0 42 -
Täglich tabellarische Details für Montag Jun 27 2022
Zeit Temp. ( °C ) Taupt. ( °C ) Wind ( km/h ) von Windböen ( km/h ) Luftdruck ( hPa ) Luftf.( % ) Regenrate ( cm )
00:04 15,8 11,9   Windstille   1017,6 78 -
00:09 15,7 11,9   Windstille   1017,6 78 -
00:14 15,6 11,8   Windstille   1017,7 78 -
00:19 15,5 11,7   Windstille   1017,7 78 -
00:24 15,4 11,6   Windstille   1017,7 78 -
00:29 15,4 11,6   Windstille   1017,7 78 -
00:34 15,4 11,8   Windstille   1017,7 79 -
00:39 15,4 11,8   Windstille   1017,7 79 -
00:44 15,4 11,8   Windstille   1016,6 79 -
00:49 15,4 11,8   Windstille   1016,7 79 -
00:54 15,3 11,7   Windstille   1016,7 79 -
00:59 15,2 11,6   Windstille   1016,7 79 -
01:04 15,2 11,6   Windstille   1016,7 79 -
01:09 15,1 11,3   Windstille   1016,8 78 -
01:14 15,0 11,2   Windstille   1016,8 78 -
01:19 15,0 11,5   Windstille   1016,8 80 -
01:24 14,9 11,5   Windstille   1016,8 80 -
01:29 14,8 11,4   Windstille   1016,8 80 -
01:34 14,8 11,4   Windstille   1016,9 80 -
01:39 14,7 11,3   Windstille   1016,9 80 -
01:44 14,6 11,2   Windstille   1016,9 80 -
01:49 14,6 11,2   Windstille   1016,9 80 -
01:54 14,6 11,4   Windstille   1016,9 81 -
01:59 14,6 11,4   Windstille   1016,9 81 -
02:04 14,5 11,3   Windstille   1016,9 81 -
02:09 14,5 11,4   Windstille   1016,9 82 -
02:14 14,5 11,3   Windstille   1016,9 81 -
02:19 14,5 11,3   Windstille   1017,0 81 -
02:24 14,4 11,2   Windstille   1017,0 81 -
02:29 14,4 11,2   Windstille   1017,0 81 -
02:34 14,3 11,1   Windstille   1017,0 81 -
02:39 14,3 11,1   Windstille   1017,1 81 -
02:44 14,2 11,0   Windstille   1017,1 81 -
02:49 14,2 11,0   Windstille   1017,1 81 -
02:54 14,1 10,9   Windstille   1017,1 81 -
02:59 14,1 11,1   Windstille   1017,1 82 -
03:04 14,1 11,1   Windstille   1017,1 82 -
03:09 14,0 11,0   Windstille   1017,1 82 -
03:14 14,0 11,0   Windstille   1017,1 82 -
03:19 14,0 11,2   Windstille   1017,1 83 -
03:24 14,0 11,0   Windstille   1017,1 82 -
03:29 13,9 10,9   Windstille   1016,1 82 -
03:34 13,9 10,9   Windstille   1016,1 82 -
03:39 13,9 11,1   Windstille   1016,1 83 -
03:44 13,9 11,1   Windstille   1016,1 83 -
03:49 13,9 11,1   Windstille   1016,1 83 -
03:54 13,9 11,1   Windstille   1016,1 83 -
03:59 13,9 11,1   Windstille   1016,1 83 -
04:04 13,8 10,9   Windstille   1016,1 83 -
04:09 13,8 10,9   Windstille   1016,1 83 -
04:14 13,8 10,9   Windstille   1016,1 83 -
04:19 13,8 11,2   Windstille   1016,1 84 -
04:24 13,8 11,2   Windstille   1016,1 84 -
04:29 13,8 11,2   Windstille   1016,1 84 -
04:34 13,8 11,2   Windstille   1016,1 84 -
04:39 13,8 11,2   Windstille   1016,1 84 -
04:44 13,8 11,2   Windstille   1016,1 84 -
04:49 13,8 11,5   Windstille   1016,1 86 -
04:54 13,8 11,5   Windstille   1016,1 86 -
04:59 13,8 11,5   Windstille   1016,1 86 -
05:04 13,7 11,4   Windstille   1016,1 86 -
05:09 13,8 11,5   Windstille   1016,1 86 -
05:14 13,8 11,5   Windstille   1016,1 86 -
05:19 13,8 11,5   Windstille   1016,1 86 -
05:24 13,8 11,5   Windstille   1016,1 86 -
05:29 13,8 11,5   Windstille   1016,1 86 -
05:34 13,8 11,5   Windstille   1016,1 86 -
05:39 13,8 11,5   Windstille   1016,1 86 -
05:44 13,8 11,5   Windstille   1016,1 86 -
05:49 13,8 11,5   Windstille   1016,1 86 -
05:54 13,8 11,2   Windstille   1016,1 84 -
05:59 13,9 11,6   Windstille   1016,1 86 -
06:04 14,0 11,9   Windstille   1016,1 87 -
06:09 14,1 11,9   Windstille   1016,0 87 -
06:14 14,3 12,1   Windstille   1016,0 87 -
06:19 14,5 12,6   Windstille   1015,9 88 -
06:24 14,6 12,6   Windstille   1015,9 88 -
06:29 14,9 13,1   Windstille   1015,8 89 -
06:34 15,2 13,2   Windstille   1015,7 88 -
06:39 15,4 13,6   Windstille   1015,6 89 -
06:44 15,7 13,9   Windstille   1015,5 89 -
06:49 16,0 14,3   Windstille   1015,4 90 -
06:54 16,3 14,7   Windstille   1015,2 90 -
06:59 16,6 14,9   Windstille   1015,2 90 -
07:04 16,8 15,2   Windstille   1015,0 90 -
07:09 17,1 15,3   Windstille   1015,0 90 -
07:14 17,5 15,7   Windstille   1014,8 89 -
07:19 17,7 15,9   Windstille   1014,7 89 -
07:24 18,0 16,2   Windstille   1014,6 89 -
07:29 18,3 16,3   Windstille   1014,5 89 -
07:34 18,5 16,4   Windstille   1014,5 88 -
07:39 18,8 16,6   Windstille   1014,8 88 -
07:44 19,0 16,8   Windstille   1015,4 87 -
07:49 19,2 16,8   Windstille   1015,3 87 -
07:54 19,4 17,0   Windstille   1015,2 86 -
07:59 19,7 17,3   Windstille   1015,1 86 -
08:04 20,0 17,5   Windstille   1015,0 86 -
08:09 20,3 17,4   Windstille   1014,9 84 -
08:14 20,6 17,4   Windstille   1014,8 83 -
08:19 21,1 17,4   Windstille   1014,7 81 -
08:24 21,5 17,5   Windstille   1014,5 79 -
08:29 21,8 17,4 1,0 OSO 12,0 1014,4 76 -
08:34 22,2 17,2 10,0 OSO 12,0 1014,3 74 -
08:39 22,5 17,1 11,0 OSO 14,0 1014,2 72 -
08:44 22,7 17,2 11,0 OSO 12,0 1014,1 71 -
08:49 22,9 17,3 10,0 OSO 12,0 1014,0 71 -
08:54 23,1 17,3 10,0 OSO 12,0 1013,9 70 -
08:59 23,3 17,3 11,0 OSO 16,0 1013,9 70 -
09:04 23,5 17,5 12,0 OSO 13,0 1013,8 69 -
09:09 23,8 17,6 11,0 SO 15,0 1013,7 68 -
09:14 24,0 17,6 12,0 OSO 15,0 1013,6 68 -
09:19 24,2 17,2 11,0 OSO 12,0 1013,5 66 -
09:24 24,4 17,6 10,0 OSO 12,0 1013,4 66 -
09:29 24,6 17,6 7,0 OSO 12,0 1013,4 65 -
09:34 24,8 17,8 6,0 SO 11,0 1013,3 65 -
09:39 25,1 17,8 11,0 OSO 12,0 1013,2 65 -
09:44 25,3 18,0 9,0 OSO 12,0 1013,2 64 -
09:49 25,7 17,8 9,0 OSO 12,0 1013,1 63 -
09:54 25,9 17,3 7,0 OSO 11,0 1013,0 59 -
09:59 26,2 17,3 7,0 SO 12,0 1012,9 58 -
10:04 26,4 17,4 11,0 SO 11,0 1012,8 58 -
10:09 26,5 17,3 4,0 SSO 8,0 1012,7 57 -
10:14 26,5 16,8 8,0 SSW 11,0 1012,7 56 -
10:19 26,6 16,8 9,0 SSW 12,0 1012,7 55 -
10:24 26,6 16,5 6,0 SSW 11,0 1012,7 54 -
10:29 26,6 16,4 9,0 SW 12,0 1012,7 54 -
10:34 26,4 16,1 10,0 SW 12,0 1012,7 53 -
10:39 26,5 16,1 8,0 Süden 11,0 1012,7 53 -
10:44 26,6 16,2 9,0 SW 12,0 1012,7 53 -
10:49 26,7 16,3 9,0 SW 12,0 1012,7 53 -
10:54 26,7 16,3 8,0 SW 12,0 1012,6 53 -
10:59 26,8 16,4 10,0 SSW 14,0 1012,6 53 -
11:04 26,8 15,8 9,0 Süden 12,0 1012,6 51 -
11:09 27,1 16,0 8,0 Süden 12,0 1012,6 51 -
11:14 27,1 15,6 8,0 SSW 12,0 1012,5 50 -
11:19 27,3 16,1 8,0 Süden 10,0 1012,5 50 -
11:24 27,4 16,2 7,0 SSW 12,0 1012,4 50 -
11:29 27,6 16,4 7,0 Süden 12,0 1012,4 51 -
11:34 27,7 16,3 8,0 SSW 12,0 1012,3 50 -
11:39 27,6 16,6 9,0 SW 12,0 1012,4 51 -
11:44 27,7 16,3 9,0 SSW 10,0 1012,3 50 -
11:49 27,8 16,4 9,0 Süden 12,0 1012,3 50 -
11:54 27,8 16,4 6,0 SSO 7,0 1012,3 50 -
11:59 28,1 16,6 6,0 SSW 12,0 1012,2 50 -
12:04 28,1 16,7 8,0 SW 11,0 1012,2 50 -
12:09 28,2 16,9 8,0 SSW 12,0 1012,2 50 -
12:14 28,2 16,8 9,0 SSW 12,0 1012,1 50 -
12:19 28,2 16,4 8,0 SW 11,0 1012,2 49 -
12:24 28,2 16,8 8,0 WSW 11,0 1012,2 50 -
12:29 28,4 16,8 8,0 SSO 11,0 1012,1 50 -
12:34 28,5 16,4 3,0 SO 6,0 1012,1 48 -
12:39 28,6 16,5   Windstille 7,0 1012,0 48 -
12:44 28,8 16,4   Windstille 5,0 1012,0 48 -
12:49 28,9 16,9 5,0 Süden 8,0 1012,0 48 -
12:54 29,0 16,9 8,0 Süden 12,0 1011,9 48 -
12:59 29,1 16,7 7,0 SSO 12,0 1011,9 48 -
13:04 29,3 17,3 10,0 OSO 14,0 1011,8 48 -
13:09 29,4 16,9 11,0 OSO 16,0 1011,8 47 -
13:14 29,5 17,0 7,0 SSO 11,0 1011,7 47 -
13:19 29,5 16,7 6,0 SSO 10,0 1011,7 46 -
13:24 29,8 17,4 12,0 SO 15,0 1011,6 48 -
13:29 29,9 17,2 7,0 Süden 11,0 1011,6 46 -
13:34 30,0 17,2 10,0 SSO 13,0 1011,6 46 -
13:39 30,0 17,4 6,0 SSW 8,0 1011,5 47 -
13:44 30,0 17,1 6,0 SSO 12,0 1011,5 46 -
13:49 30,0 16,8 7,0 SSO 12,0 1011,5 45 -
13:54 30,1 16,8 5,0 SSO 12,0 1011,5 45 -
13:59 30,1 16,5 9,0 SSW 12,0 1011,5 44 -
14:04 29,9 17,0 10,0 WSW 12,0 0,0 46 -
14:09 29,9 17,0 9,0 SSW 12,0 1011,6 46 -
14:14 29,9 16,7 8,0 SSW 12,0 1011,6 45 -
14:19 29,9 16,8 9,0 WSW 12,0 1011,6 46 -
14:24 30,0 16,8 8,0 SSW 12,0 1011,6 45 -
14:29 30,0 16,1 11,0 OSO 15,0 1012,7 43 -
14:34 30,0 16,1 9,0 OSO 16,0 1012,7 43 -
14:39 30,2 16,1 14,0 SO 17,0 1012,6 43 -
14:44 30,3 15,9 11,0 OSO 17,0 1012,6 42 -
14:49 30,3 15,7 13,0 OSO 16,0 1012,5 42 -

Lade ein Kopie deiner Daten  here

Meine Wetterdaten gespeichert auf Weather Underground. Script entwickelt von Jim McMurry. Rewritten for template use Leuven-Template